Home > Weather > Rybnik > Past weeks

Flag for Poland Past Weather in Rybnik, Poland — Yesterday and Last 2 Weeks

Now
59 °F

Sunny.


Feels Like: 58 °F
Forecast: 55 / 82 °F
Wind: 6 mph from East

Location: Katowice Airport

Current Time: Aug 25, 2016 at 8:29:48 AM

Latest Report: Aug 25, 2016 at 8:00 AM


Visibility: 10 mi

Pressure: 30.30 "Hg

Humidity: 88%

Dew Point: 55 °F

Location of RybnikLocation

Past Weather in Rybnik — Graph

°F

Rybnik Temperature Yesterday

Maximum temperature yesterday: 73 °F (at 3:00 PM)
Minimum temperature yesterday: 54 °F (at 4:00 AM)
Average temperature yesterday: 63 °F

High & Low Weather Summary for the Past Weeks

 TemperatureHumidityPressure
High81 °F (Aug 20, 4:30 PM)100% (Aug 10, 7:00 AM)30.33 "Hg (Aug 10, 7:00 AM)
Low39 °F (Aug 12, 2:30 AM)39% (Aug 19, 2:30 PM)29.83 "Hg (Aug 18, 4:30 PM)
Average61 °F79%30.11 "Hg
* Reported Aug 10 7:00 AM — Aug 25 7:00 AM, Rybnik, Weather by CustomWeather, © 2016

Note: Actual official high and low records may vary slightly from our data, if they occured in-between our weather recording intervals... More about our weather records

Advertising

Rybnik Weather History for the Previous 24 Hours

Scroll right to see more
 ConditionsComfort  
Time TempWeatherWind HumidityBarometerVisibility
7:00 AM
Thu, Aug 25
52 °FSunny.3 mph100%30.30 "Hg10 mi
6:30 AM50 °FFog.2 mph94%30.30 "Hg3 mi
6:00 AM46 °FFog.2 mph100%30.27 "Hg1 mi
5:30 AM48 °FFog.1 mph100%30.27 "Hg4 mi
5:00 AM48 °FFog.3 mph100%30.30 "Hg1 mi
4:30 AM48 °FFog.2 mph100%30.30 "Hg1 mi
4:00 AM48 °FFog.3 mph100%30.30 "Hg3 mi
3:30 AM48 °FFog.2 mph100%30.30 "Hg4 mi
3:00 AM50 °FFog.3 mph100%30.30 "Hg4 mi
2:30 AM52 °FFog.5 mph100%30.30 "Hg4 mi
2:00 AM52 °FClear.2 mph100%30.30 "Hg5 mi
1:30 AM52 °FClear.2 mph100%30.30 "Hg5 mi
1:00 AM52 °FClear.2 mph100%30.30 "Hg10 mi
12:30 AM54 °FClear.1 mph94%30.30 "Hg10 mi
12:00 AM54 °FClear.1 mph94%30.30 "Hg10 mi
11:30 PM
Wed, Aug 24
54 °FClear.3 mph100%30.30 "Hg10 mi
11:00 PM55 °FClear.3 mph94%30.30 "Hg4 mi
10:30 PM57 °FClear.2 mph94%30.30 "Hg10 mi
10:00 PM57 °FClear.2 mph94%30.30 "Hg10 mi
9:30 PM57 °FClear.2 mph100%30.30 "Hg10 mi
9:00 PM59 °FClear.3 mph94%30.30 "Hg10 mi
8:30 PM61 °FSunny.3 mph88%30.30 "Hg10 mi
8:00 PM63 °FSunny.3 mph83%30.27 "Hg10 mi
7:30 PM68 °FSunny.3 mph64%30.27 "Hg10 mi
7:00 PM70 °FPassing clouds.3 mph64%30.27 "HgN/A
6:30 PM72 °FPassing clouds.5 mph61%30.27 "HgN/A
6:00 PM72 °FPassing clouds.5 mph61%30.27 "HgN/A
5:30 PM72 °FPassing clouds.7 mph61%30.30 "HgN/A
5:00 PM73 °FPassing clouds.8 mph53%30.30 "HgN/A
4:30 PM70 °FPassing clouds.6 mph64%30.30 "HgN/A
4:00 PM72 °FPassing clouds.2 mph61%30.30 "HgN/A
3:30 PM72 °FPassing clouds.7 mph61%30.30 "HgN/A
3:00 PM73 °FPassing clouds.8 mph53%30.30 "HgN/A
2:30 PM72 °FPassing clouds.5 mph65%30.30 "HgN/A
2:00 PM70 °FScattered clouds.9 mph64%30.30 "HgN/A
1:30 PM72 °FPassing clouds.3 mph61%30.30 "HgN/A
1:00 PM70 °FScattered clouds.7 mph69%30.30 "HgN/A
12:30 PM72 °FBroken clouds.3 mph57%30.30 "HgN/A
12:00 PM68 °FPartly sunny.3 mph69%30.33 "HgN/A
11:30 AM72 °FScattered clouds.2 mph65%30.33 "HgN/A
11:00 AM68 °FScattered clouds.5 mph73%30.33 "HgN/A
10:30 AM66 °FScattered clouds.2 mph78%30.33 "HgN/A
10:00 AM66 °FBroken clouds.3 mph83%30.33 "HgN/A
9:30 AM64 °FBroken clouds.5 mph88%30.33 "HgN/A
9:00 AM63 °FBroken clouds.5 mph94%30.33 "Hg4 mi
8:30 AM61 °FFog.1 mph100%30.33 "Hg1 mi
8:00 AM59 °FCool.2 mph100%30.33 "Hg1 mi
Weather by CustomWeather, © 2016

See weather overviewHow to use our weather pages